Flag for U.S.A. Weather past 2 weeks in Monticello, Kentucky, U.S.A.

Now
86 °F

Scattered clouds.


Feels Like: 91 °F
Forecast: 71 / 88 °F
Wind: 5 mph from Southwest

Location: London-Corbin Airport-Magee Field

Current Time: Jul 28, 2015 at 12:24:23 PM

Latest Report: Jul 28, 2015 at 11:53 AM


Visibility: 10 mi

Pressure: 29.99 "Hg

Humidity: 59%

Dew point: 70 °F

Location of MonticelloLocation

Historic Weather in Monticello — Graph

°F

Monticello temperature yesterday

Maximum temperature yesterday: 87 °F (at 4:53 PM)
Minimum temperature yesterday: 72 °F (at 4:53 AM)
Average temperature yesterday: 79 °F

Past Weeks' High & Low Weather Summary

 TemperatureHumidityPressure
High92 °F (Jul 18, 3:53 PM)90% (Jul 14, 4:53 AM)30.05 "Hg (Jul 14, 4:53 AM)
Low63 °F (Jul 25, 6:53 AM)39% (Jul 25, 5:53 PM)29.64 "Hg (Jul 14, 7:53 PM)
Average77 °F70%29.92 "Hg
* Reported Jul 13 10:53 AM — Jul 28 10:53 AM, Monticello, Weather by CustomWeather, © 2015

Note: Actual official high and low records may vary slightly from our data, if they occured in-between our weather recording intervals... More about our weather records

Advertising

Monticello weather history for previous 24 hours

 ConditionsComfort  
Time TempWeatherWind HumidityBarometerVisibility
10:53 AM
Tue, Jul 28
83 °FSunny.3 mph68%29.99 "Hg10 mi
9:53 AM80 °FSunny.3 mph71%30.01 "Hg10 mi
8:53 AM76 °FSunny.No wind80%30.00 "Hg9 mi
7:53 AM72 °FSunny.No wind87%29.99 "Hg7 mi
7:01 AM71 °FFog.No wind87%30.03 "Hg2 mi
5:53 AM71 °FFog.No wind87%29.97 "Hg4 mi
4:53 AM72 °FPassing clouds.No wind87%29.97 "Hg7 mi
3:55 AM72 °FFog.No wind87%30.01 "Hg1 mi
2:53 AM73 °FClear.No wind84%29.96 "Hg4 mi
2:02 AM73 °FFog.No wind88%30.02 "Hg4 mi
1:53 AM73 °FFog.No wind88%29.98 "Hg2 mi
12:53 AM74 °FClear.No wind85%29.99 "Hg5 mi
11:53 PM
Mon, Jul 27
74 °FFog.No wind88%29.99 "Hg6 mi
10:53 PM74 °FClear.No wind88%29.99 "Hg8 mi
9:53 PM76 °FPassing clouds.6 mph82%29.96 "Hg10 mi
9:03 PM78 °FHeavy rain. Cloudy.15 mph71%30.01 "Hg2 mi
8:53 PM79 °FLight rain. Broken clouds.14 mph72%29.96 "Hg5 mi
7:53 PM81 °FScattered clouds.5 mph69%29.94 "Hg10 mi
6:53 PM84 °FScattered clouds.7 mph61%29.93 "Hg10 mi
4:53 PM87 °FPassing clouds.6 mph57%29.94 "Hg10 mi
3:53 PM86 °FScattered clouds.3 mph55%29.95 "Hg10 mi
2:53 PM86 °FScattered clouds.10 mph57%29.96 "Hg10 mi
1:53 PM85 °FPartly sunny.10 mph59%29.98 "Hg10 mi
12:53 PM85 °FScattered clouds.8 mph59%29.99 "Hg10 mi
12:01 PM85 °FPassing clouds.5 mph61%30.05 "Hg9 mi
Weather by CustomWeather, © 2015

See weather overviewHow to use our weather pages